CT1ETE Weather Reports


time (UTC)temp
C
wind
direction
speed
KPH
gust
KPH
rain 1hr
cm
rain 24hr
cm
rain mn
cm
humidity
%
barometer
mb
20260508165443 15 129 3.2 6.4 0.00 0.10 0.10 63 1007.7
20260508163940 15 129 6.4 11.3 0.00 0.10 0.10 64 1007.8
20260508162437 16 128 6.4 12.9 0.00 0.10 0.10 62 1007.8
20260508161647 17 244 4.8 9.7 0.00 0.10 0.10 58 1007.8
20260508155437 17 104 3.2 9.7 0.00 0.10 0.10 62 1007.8
20260508153937 16 330 1.6 16.1 0.00 0.10 0.10 65 1007.9
20260508152436 16 200 8.0 17.7 0.00 0.10 0.10 63 1008.1
20260508150937 16 234 3.2 12.9 0.00 0.10 0.10 69 1008.3
20260508145436 14 242 8.0 14.5 0.00 0.10 0.10 74 1008.5
20260508143936 13 213 9.7 19.3 0.00 0.10 0.10 74 1008.8
20260508142437 14 188 12.9 27.4 0.00 0.10 0.10 73 1009.0
20260508140937 15 227 8.0 25.7 0.00 0.10 0.10 67 1008.8
20260508135434 15 244 6.4 19.3 0.00 0.10 0.10 66 1008.9
20260508133935 16 243 12.9 25.7 0.00 0.10 0.10 65 1008.9
20260508133125 16 240 12.9 25.7 0.00 0.10 0.10 61 1008.9
20260508130934 16 212 9.7 25.7 0.00 0.10 0.10 65 1009.2
20260508125432 16 248 11.3 20.9 0.00 0.10 0.10 70 1009.4
20260508123932 15 234 8.0 17.7 0.00 0.10 0.10 78 1009.4
20260508122432 13 244 14.5 22.5 0.05 0.10 0.10 79 1009.5
20260508120933 13 243 19.3 33.8 0.05 0.10 0.10 83 1009.5
20260508115432 13 245 11.3 19.3 0.05 0.10 0.10 80 1009.5
20260508113932 13 222 8.0 17.7 0.05 0.10 0.10 80 1009.5
20260508112432 15 186 8.0 16.1 0.00 0.05 0.05 70 1009.4
20260508110932 15 182 6.4 19.3 0.00 0.05 0.05 69 1009.5
20260508105433 15 138 9.7 20.9 0.00 0.05 0.05 71 1009.4
20260508103933 14 138 9.7 20.9 0.00 0.05 0.05 76 1009.4
20260508102432 14 103 9.7 17.7 0.00 0.05 0.05 75 1009.5
20260508100932 15 143 8.0 14.5 0.00 0.05 0.05 73 1009.4
20260508095432 15 147 8.0 20.9 0.00 0.05 0.05 72 1009.4
20260508094638 15 198 8.0 20.9 0.00 0.05 0.05 70 1009.3
20260508093137 15 100 4.8 14.5 0.00 0.05 0.05 79 1009.3
20260508090930 13 163 6.4 14.5 0.00 0.05 0.05 80 1009.2
20260508085428 13 148 4.8 11.3 0.00 0.05 0.05 80 1009.0
20260508083929 13 117 3.2 12.9 0.00 0.05 0.05 84 1008.9
20260508083135 12 162 4.8 14.5 0.00 0.05 0.05 86 1009.0
20260508081618 11 153 8.0 14.5 0.00 0.05 0.05 86 1008.9
20260508075424 11 148 6.4 12.9 0.00 0.05 0.05 81 1008.9
20260508073923 11 129 6.4 11.3 0.00 0.05 0.05 82 1008.9
20260508072424 11 176 3.2 6.4 0.00 0.05 0.05 80 1008.7
20260508071625 11 194 1.6 6.4 0.00 0.05 0.05 80 1008.5
20260508065424 11 132 1.6 4.8 0.03 0.05 0.05 82 1008.4
20260508063921 10 96 3.2 9.7 0.05 0.05 0.05 82 1008.1
20260508062422 10 105 8.0 16.1 0.05 0.05 0.05 83 1008.2
20260508061611 10 121 11.3 17.7 0.05 0.05 0.05 83 1008.2
20260508060119 10 87 11.3 17.7 0.05 0.05 0.05 85 1007.8
20260508053922 10 136 14.5 19.3 0.03 0.03 0.03 85 1008.1
20260508052422 10 121 9.7 17.7 0.03 0.03 0.03 86 1007.9
20260508050921 11 123 8.0 16.1 0.00 0.00 0.00 86 1008.1
20260508045421 11 201 3.2 8.0 0.00 0.00 0.00 86 1008.1
20260508043924 11 140 1.6 9.7 0.00 0.00 0.00 86 1007.8
20260508042415 11 123 3.2 6.4 0.00 0.00 0.00 86 1007.8
20260508040915 11 111 1.6 6.4 0.00 0.00 0.00 86 1007.7
20260508035413 11 112 0.0 0.0 0.00 0.00 0.00 86 1007.7
20260508033914 11 111 0.0 0.0 0.00 0.00 0.00 86 1007.8
20260508033114 11 112 0.0 0.0 0.00 0.00 0.00 86 1007.9
20260508030913 11 112 0.0 0.0 0.00 0.00 0.00 86 1008.0
20260508025409 11 112 0.0 4.8 0.00 0.00 0.00 86 1008.1
20260508023909 10 111 1.6 4.8 0.00 0.00 0.00 86 1008.2
20260508023120 10 111 3.2 6.4 0.00 0.00 0.00 86 1008.3
20260508023006 11 112 3.2 4.8 0.00 0.00 0.00 85 1008.4
20260508015407 11 112 3.2 6.4 0.00 0.00 0.00 86 1008.5
20260508013905 10 105 1.6 4.8 0.00 0.00 0.00 86 1008.7
20260508012405 11 105 0.0 3.2 0.00 0.00 0.00 86 1009.0
20260508010903 11 105 1.6 4.8 0.00 0.00 0.00 86 1009.2
20260508005401 11 105 1.6 4.8 0.00 0.00 0.00 86 1009.3
20260508004557 11 105 1.6 3.2 0.00 0.00 0.00 85 1009.3
20260508002359 11 105 1.6 4.8 0.00 0.00 0.00 85 1009.3
20260508000859 11 105 1.6 6.4 0.00 0.00 0.00 85 1009.5
20260508000058 11 103 3.2 6.4 0.00 0.00 0.00 85 1009.6
20260507233857 11 103 3.2 6.4 0.00 0.00 0.00 85 1009.7
20260507232355 11 103 4.8 9.7 0.00 0.00 0.00 85 1009.8
20260507230855 11 103 3.2 6.4 0.00 0.00 0.00 84 1009.8
20260507225355 11 103 3.2 4.8 0.00 0.00 0.00 84 1010.1
20260507224548 11 103 3.2 6.4 0.00 0.00 0.00 84 1010.2
20260507222348 11 103 4.8 9.7 0.00 0.00 0.00 84 1010.3
20260507220847 11 108 6.4 9.7 0.00 0.00 0.00 83 1010.4
20260507215347 11 164 6.4 8.0 0.00 0.00 0.00 84 1010.6
20260507213847 11 246 1.6 4.8 0.00 0.00 0.00 84 1010.6
20260507212345 11 246 3.2 6.4 0.00 0.00 0.00 84 1010.7
20260507211532 11 246 1.6 6.4 0.00 0.00 0.00 83 1010.7
20260507205341 12 246 8.0 14.5 0.00 0.00 0.00 83 1010.6
20260507203841 12 229 9.7 16.1 0.00 0.00 0.00 83 1010.6
20260507202339 12 217 8.0 12.9 0.00 0.00 0.00 82 1010.4
20260507200838 12 220 9.7 16.1 0.00 0.00 0.00 80 1010.2
20260507195339 12 227 8.0 17.7 0.00 0.00 0.00 79 1010.1
20260507193836 13 262 8.0 19.3 0.00 0.00 0.00 78 1009.9
20260507192332 13 252 11.3 20.9 0.00 0.00 0.00 77 1009.7
20260507191538 13 232 8.0 19.3 0.00 0.00 0.00 75 1009.5
20260507190035 14 236 11.3 20.9 0.00 0.00 0.00 73 1009.3
20260507183833 14 237 9.7 20.9 0.00 0.00 0.00 72 1009.3
20260507182332 15 233 14.5 22.5 0.00 0.00 0.00 70 1009.3
20260507180833 15 243 11.3 20.9 0.00 0.00 0.00 68 1009.2
20260507180031 16 224 14.5 22.5 0.00 0.00 0.00 65 1009.0
20260507173832 17 271 11.3 25.7 0.00 0.00 0.00 63 1009.0
20260507172332 17 246 14.5 25.7 0.00 0.00 0.00 58 1009.0
20260507170832 17 228 11.3 25.7 0.00 0.00 0.00 60 1009.0